Location: Arpaise
(41.0333°N, 14.7333°E)
Time: 21:37:43
(UTC+00:00)

Cosmos 846 Rocket - Pass Details

Date: 18 January 2021
Orbit: 948 x 991 km, 82.9° (Epoch: 06 March)

Event Time Altitude Azimuth Distance (km) Brightness Sun altitude
Rises 19:28:01 0° 207° (SSW) 3,675 8.7 -38.7°
Reaches altitude 10° 19:30:42 10° 215° (SW) 2,726 8.1 -39.2°
Enters shadow 19:33:29 25° 232° (SW) 1,858 7.2 -39.7°
